Cloud_Cover
0 0 0 0 0 0 0 0 0 0 0 3 0 0 0 1 5 5 8 5 5 5 21 11 5 0 0 0 0 0 0 0 12
0 0 0 0 0 0 0 0 0 0 0 0 0 0 0 0 0 1 0 5 22 4 3 21 63 6 5 3 0 0 0 0 92
0 0 0 0 0 0 0 0 0 0 0 0 0 0 0 0 0 0 0 0 0 0 0 0 1 1 4 36 5 4 0 3 42
0 0 0 0 0 0 0 0 0 0 0 0 0 0 0 0 0 0 0 0 0 0 0 0 0 0 0 0 0 0 0 0 24
0 0 0 0 0 0 0 0 0 0 0 0 0 0 0 0 0 0 0 0 0 0 0 0 0 0 0 0 0 0 0 0 0
0 0 0 0 0 0 0 0 0 0 0 0 0 0 0 0 0 0 0 0 0 0 0 0 0 0 0 0 0 0 0 0 0
0 0 0 0 0 0 0 0 0 0 0 0 0 0 0 0 0 0 0 0 25 47 62 10 87 6 1 2 0 0 0 0 0
4 3 0 0 0 0 0 0 0 0 0 0 0 0 0 0 3 71 87 49 98 100 100 97 95 100 45 89 51 1 0 0 0
22 74 0 1 0 0 0 0 0 0 0 4 0 0 0 37 5 70 100 100 100 100 100 100 100 5 14 23 7 0 0 0 0
49 93 7 99 45 1 0 0 0 0 0 0 42 89 71 100 100 99 98 76 100 100 100 100 38 14 7 98 0 0 0 0 0
15 1 3 78 96 20 56 0 0 0 0 14 72 100 100 100 100 100 100 100 100 100 100 100 100 96 38 56 98 6 2 1 0
5 5 0 0 12 100 5 1 4 0 2 34 43 100 100 100 100 100 100 100 100 100 100 100 69 54 52 0 13 22 0 5 4
40 100 27 0 4 0 5 2 5 5 3 5 53 98 100 100 100 100 100 100 100 100 100 56 84 73 72 6 5 9 21 2 0
100 91 100 85 0 0 5 5 0 0 2 51 68 100 100 100 100 100 100 100 100 100 100 100 70 56 72 44 2 4 0 3 5
98 97 32 87 5 3 4 0 22 100 100 67 7 100 100 100 100 100 100 100 100 100 100 100 100 100 88 38 3 12 84 40 0
10 96 96 19 3 47 37 0 14 99 29 5 45 100 100 100 100 100 100 100 100 100 100 100 100 100 100 100 100 79 4 4 1
5 5 2 4 18 5 17 16 2 0 0 5 100 100 100 100 100 100 100 100 100 100 100 100 100 99 100 93 93 80 25 5 92
1 12 51 85 28 3 9 25 1 2 5 2 100 100 100 100 100 100 100 100 100 100 100 100 100 100 94 99 69 73 86 12 96
6 65 68 21 30 5 29 24 38 3 3 44 77 100 100 100 100 100 100 100 100 100 100 62 50 100 98 100 98 77 3 0 100
8 6 100 100 39 5 2 79 58 44 4 0 39 100 100 100 100 100 100 100 100 100 100 82 33 98 100 80 99 5 0 0 75